Retour au catalogue

STARLINK-5174

ActifCommunicationsVLEO
NORAD 54067·PAYLOAD·🇺🇸 United States

Lancé Oct 20, 2022 depuis Cape Canaveral Space Force Station

Loading…

Prochains Passages (prochaines 24 heures)

TLE

FraisSource: CelesTrak SupGP

Époque: Sep 14, 2026, 20:53 UTC

1 54067C 22136S   26257.87062500  .00013501  00000+0  38619-3 0  2572
2 54067  53.1576 203.9403 0001391 100.8095 146.6970 15.35398412    14

Suivez STARLINK-5174 en temps réel avec AllMySat

Download on the App Store